Location: Aalen
(48.8330°N, 10.1000°E)
Time: 02:59:30
(UTC+01:00)

Envisat - Pass Details

Date: 01 December 2022
Orbit: 763 x 765 km, 98.2° (Epoch: 28 January)

Event Time Altitude Azimuth Distance (km) Brightness Sun altitude
Rises 04:53:27 0° 12° (NNE) 3,246 6.4 -28.4°
Reaches altitude 10° 04:55:46 10° 11° (NNE) 2,315 5.6 -28.0°
Enters shadow 04:58:36 34° 6° (N) 1,251 4.1 -27.6°
